When you browse on this site, cookies collect data to enhance your experience and personalize the content and advertising you see.
Visit our Privacy Policy to learn more. By continuing to use the site, you agree to this use of cookies and data.
  • In Hungary
  • List of Countries
  • For 7 days
  • Water Temperature
  • Weather Map
  • News
  • Weather Widgets
  • user-avatar
    Login

    Hourly Weather Alot

    Today, 11 December, Wednesday

    Time Temperature Precipitation Wind Pressure Humidity
    00:00 +18°C° 0 mm 2 mps 721 mmHg 46%
    01:00 +18°C° 0 mm 2 mps 721 mmHg 47%
    02:00 +18°C° 0 mm 2 mps 721 mmHg 48%
    03:00 +17°C° 0 mm 2 mps 720 mmHg 50%
    04:00 +17°C° 0 mm 2 mps 720 mmHg 51%
    05:00 +18°C° 0 mm 1 mps 720 mmHg 55%
    06:00 +19°C° 0 mm 1 mps 721 mmHg 54%
    07:00 +20°C° 0 mm 1 mps 722 mmHg 52%
    08:00 +21°C° 0 mm 1 mps 723 mmHg 50%
    09:00 +23°C° 0 mm 2 mps 722 mmHg 47%
    10:00 +25°C° 0 mm 2 mps 722 mmHg 43%
    11:00 +28°C° 0 mm 3 mps 722 mmHg 40%
    12:00 +29°C° 0 mm 3 mps 721 mmHg 35%
    13:00 +30°C° 0 mm 3 mps 721 mmHg 30%
    14:00 +32°C° 0 mm 4 mps 720 mmHg 26%
    15:00 +30°C° 0 mm 3 mps 720 mmHg 28%
    16:00 +28°C° 0 mm 3 mps 719 mmHg 30%
    17:00 +27°C° 0 mm 2 mps 719 mmHg 32%
    18:00 +25°C° 0 mm 2 mps 719 mmHg 35%
    19:00 +24°C° 0 mm 2 mps 720 mmHg 38%
    20:00 +21°C° 0 mm 2 mps 720 mmHg 41%
    21:00 +22°C° 0 mm 1 mps 720 mmHg 43%
    22:00 +21°C° 0 mm 1 mps 720 mmHg 46%
    23:00 +18°C° 0 mm 0 mps 719 mmHg 48%

    Tomorrow, 12 December, Thursday

    Time Temperature Precipitation Wind Pressure Humidity
    00:00 +20°C° 0 mm 1 mps 719 mmHg 48%
    01:00 +20°C° 0 mm 1 mps 719 mmHg 48%
    02:00 +19°C° 0 mm 1 mps 719 mmHg 48%
    03:00 +19°C° 0 mm 1 mps 719 mmHg 48%
    04:00 +18°C° 0 mm 2 mps 719 mmHg 48%
    05:00 +18°C° 0 mm 2 mps 719 mmHg 47%
    06:00 +18°C° 0 mm 2 mps 719 mmHg 45%
    07:00 +19°C° 0 mm 2 mps 720 mmHg 44%
    08:00 +20°C° 0 mm 2 mps 721 mmHg 42%
    09:00 +24°C° 0 mm 2 mps 721 mmHg 36%
    10:00 +26°C° 0 mm 3 mps 721 mmHg 29%
    11:00 +28°C° 0 mm 3 mps 721 mmHg 23%
    12:00 +29°C° 0 mm 4 mps 720 mmHg 22%
    13:00 +30°C° 0 mm 5 mps 720 mmHg 21%
    14:00 +30°C° 0 mm 6 mps 719 mmHg 20%
    15:00 +29°C° 0 mm 5 mps 719 mmHg 23%
    16:00 +28°C° 0 mm 4 mps 719 mmHg 25%
    17:00 +26°C° 0 mm 3 mps 718 mmHg 28%
    18:00 +25°C° 0 mm 3 mps 719 mmHg 30%
    19:00 +24°C° 0 mm 3 mps 719 mmHg 31%
    20:00 +24°C° 0 mm 2 mps 720 mmHg 33%
    21:00 +23°C° 0 mm 2 mps 720 mmHg 35%
    22:00 +21°C° 0 mm 2 mps 720 mmHg 38%
    23:00 +20°C° 0 mm 2 mps 720 mmHg 41%

    Day after tomorrow, 13 December, Friday

    Time Temperature Precipitation Wind Pressure Humidity
    00:00 +19°C° 0 mm 2 mps 719 mmHg 43%
    01:00 +20°C° 0 mm 1 mps 719 mmHg 46%
    02:00 +19°C° 0 mm 1 mps 719 mmHg 49%
    03:00 +19°C° 0.1 mm 1 mps 719 mmHg 51%
    04:00 +18°C° 0.1 mm 1 mps 719 mmHg 53%
    05:00 +18°C° 0.1 mm 1 mps 719 mmHg 55%
    06:00 +19°C° 0.1 mm 1 mps 720 mmHg 55%
    07:00 +20°C° 0.1 mm 1 mps 721 mmHg 56%
    08:00 +20°C° 0.1 mm 1 mps 722 mmHg 56%
    09:00 +21°C° 0 mm 2 mps 722 mmHg 53%
    10:00 +24°C° 0 mm 3 mps 722 mmHg 49%
    11:00 +26°C° 0 mm 4 mps 722 mmHg 45%
    12:00 +27°C° 0 mm 5 mps 721 mmHg 41%
    13:00 +28°C° 0 mm 5 mps 721 mmHg 37%
    14:00 +28°C° 0 mm 6 mps 720 mmHg 32%
    15:00 +27°C° 0 mm 5 mps 720 mmHg 36%
    16:00 +26°C° 0 mm 4 mps 720 mmHg 39%
    17:00 +24°C° 0 mm 3 mps 720 mmHg 42%
    18:00 +23°C° 0 mm 2 mps 721 mmHg 45%
    19:00 +21°C° 0 mm 2 mps 721 mmHg 47%
    20:00 +21°C° 0 mm 1 mps 722 mmHg 50%
    21:00 +19°C° 0 mm 2 mps 722 mmHg 52%
    22:00 +19°C° 0 mm 2 mps 722 mmHg 54%
    23:00 +18°C° 0 mm 3 mps 723 mmHg 56%

    14 December, Saturday

    Time Temperature Precipitation Wind Pressure Humidity
    00:00 +17°C° 0 mm 3 mps 723 mmHg 58%
    01:00 +17°C° 0 mm 3 mps 722 mmHg 59%
    02:00 +16°C° 0 mm 3 mps 722 mmHg 60%
    03:00 +14°C° 0 mm 3 mps 722 mmHg 61%
    04:00 +14°C° 0 mm 3 mps 723 mmHg 62%
    05:00 +13°C° 0 mm 3 mps 723 mmHg 62%
    06:00 +14°C° 0 mm 3 mps 723 mmHg 60%
    07:00 +15°C° 0 mm 4 mps 724 mmHg 59%
    08:00 +15°C° 0 mm 4 mps 725 mmHg 57%
    09:00 +18°C° 0 mm 4 mps 725 mmHg 52%
    10:00 +21°C° 0 mm 4 mps 725 mmHg 48%
    11:00 +23°C° 0 mm 4 mps 725 mmHg 43%
    12:00 +25°C° 0 mm 3 mps 725 mmHg 40%
    13:00 +25°C° 0 mm 2 mps 724 mmHg 36%
    14:00 +26°C° 0 mm 2 mps 723 mmHg 32%
    15:00 +25°C° 0 mm 2 mps 723 mmHg 35%
    16:00 +24°C° 0 mm 2 mps 722 mmHg 37%
    17:00 +23°C° 0 mm 2 mps 722 mmHg 40%
    18:00 +21°C° 0 mm 3 mps 722 mmHg 45%
    19:00 +20°C° 0 mm 3 mps 723 mmHg 50%
    20:00 +18°C° 0 mm 4 mps 723 mmHg 55%
    21:00 +18°C° 0 mm 4 mps 723 mmHg 55%
    22:00 +17°C° 0 mm 4 mps 723 mmHg 56%
    23:00 +17°C° 0 mm 3 mps 723 mmHg 57%

    15 December, Sunday

    Time Temperature Precipitation Wind Pressure Humidity
    00:00 +16°C° 0 mm 3 mps 723 mmHg 59%
    01:00 +16°C° 0 mm 3 mps 723 mmHg 61%
    02:00 +14°C° 0 mm 3 mps 722 mmHg 63%
    03:00 +14°C° 0 mm 3 mps 722 mmHg 71%
    04:00 +13°C° 0 mm 3 mps 722 mmHg 80%
    05:00 +13°C° 0 mm 3 mps 722 mmHg 88%
    06:00 +14°C° 0 mm 3 mps 723 mmHg 87%
    07:00 +14°C° 0 mm 3 mps 723 mmHg 85%
    08:00 +16°C° 0 mm 3 mps 724 mmHg 84%
    09:00 +18°C° 0 mm 3 mps 724 mmHg 74%
    10:00 +21°C° 0 mm 3 mps 724 mmHg 65%
    11:00 +24°C° 0 mm 3 mps 724 mmHg 55%
    12:00 +25°C° 0 mm 3 mps 723 mmHg 51%
    13:00 +26°C° 0 mm 2 mps 722 mmHg 46%
    14:00 +27°C° 0 mm 2 mps 722 mmHg 42%
    15:00 +26°C° 0 mm 3 mps 722 mmHg 44%
    16:00 +25°C° 0 mm 4 mps 721 mmHg 47%
    17:00 +23°C° 0 mm 5 mps 721 mmHg 49%
    18:00 +21°C° 0 mm 5 mps 722 mmHg 52%
    19:00 +20°C° 0 mm 5 mps 722 mmHg 54%
    20:00 +19°C° 0 mm 5 mps 723 mmHg 57%
    21:00 +17°C° 0 mm 5 mps 723 mmHg 56%
    22:00 +17°C° 0 mm 4 mps 723 mmHg 54%
    23:00 +17°C° 0 mm 4 mps 723 mmHg 52%

    16 December, Monday

    Time Temperature Precipitation Wind Pressure Humidity
    00:00 +15°C° 0 mm 4 mps 722 mmHg 54%
    01:00 +15°C° 0 mm 4 mps 722 mmHg 55%
    02:00 +15°C° 0 mm 4 mps 722 mmHg 56%
    03:00 +14°C° 0 mm 4 mps 722 mmHg 64%
    04:00 +14°C° 0 mm 3 mps 722 mmHg 71%
    05:00 +13°C° 0 mm 3 mps 722 mmHg 78%
    06:00 +14°C° 0 mm 3 mps 723 mmHg 78%
    07:00 +15°C° 0 mm 4 mps 723 mmHg 78%
    08:00 +15°C° 0 mm 4 mps 724 mmHg 77%
    09:00 +18°C° 0 mm 4 mps 724 mmHg 69%
    10:00 +20°C° 0 mm 4 mps 724 mmHg 61%
    11:00 +22°C° 0 mm 4 mps 724 mmHg 54%
    12:00 +23°C° 0 mm 4 mps 723 mmHg 51%
    13:00 +25°C° 0 mm 4 mps 723 mmHg 48%
    14:00 +25°C° 0 mm 4 mps 722 mmHg 45%
    15:00 +23°C° 0 mm 4 mps 722 mmHg 46%
    16:00 +23°C° 0 mm 4 mps 722 mmHg 47%
    17:00 +22°C° 0 mm 5 mps 722 mmHg 49%
    18:00 +21°C° 0 mm 5 mps 722 mmHg 49%
    19:00 +19°C° 0 mm 5 mps 723 mmHg 50%
    20:00 +17°C° 0 mm 5 mps 723 mmHg 50%
    21:00 +17°C° 0 mm 5 mps 723 mmHg 52%
    22:00 +17°C° 0 mm 4 mps 723 mmHg 54%
    23:00 +15°C° 0 mm 4 mps 723 mmHg 56%
    Show more